Weather observations for the past three days for
Huslia, Huslia Airport
Metric (Imperial)
Date Time (akdt) Wind (kph) Vis. (km) Weather Sky Cond. Temperature (ºC) Relative Humidity Wind Chill (°C) Heat Index (°C) Pressure Precipitation (cm)
Air Dwpt 6 hour altimeter (cm) sea level (mb) 1 hr 3 hr 6 hr
Max. Min.
21 07:56 N 6 16.09 Fair CLR 15.6 10 70% 76.02 1013.5
21 06:56 Vrbl 7 16.09 Fair CLR 13.3 8.9 75% 76 1013.3
21 05:56 NW 6 16.09 Fair CLR 12.8 8.9 77% 76 1013.4
21 04:56 NW 7 16.09 Fair CLR 12.8 8.9 77% 76 1013.3
21 03:56 NW 7 16.09 Fair CLR 12.8 8.9 21.7 12.8 77% 76 1013.2
21 02:56 NW 9 16.09 Fair CLR 13.3 8.9 75% 76 1013.2
21 01:56 NW 6 16.09 Fair CLR 14.4 9.4 72% 75.97 1013.0
21 00:56 NW 6 16.09 Fair CLR 16.7 9.4 62% 75.97 1013.0
20 23:56 NW 6 16.09 Fair CLR 18.9 9.4 54% 75.95 1012.7
20 22:56 NW 6 16.09 Fair CLR 21.1 9.4 47% 75.95 1012.5
20 21:56 Vrbl 9 16.09 Fair CLR 21.7 8.3 23.9 21.7 42% 75.92 1012.5
20 20:56 NW 7 16.09 Fair CLR 22.2 7.8 40% 75.92 1012.3
20 19:56 N 15 16.09 Fair CLR 22.8 7.2 37% 75.95 1012.5
20 18:56 NE 15 16.09 Fair CLR 23.3 7.8 37% 75.95 1012.7
20 17:56 Vrbl 6 16.09 Fair CLR 22.8 7.2 37% 75.97 1013.2
20 16:56 N 17 G 26 16.09 Fair CLR 23.9 8.9 39% 25 76.02 1013.6
20 15:56 Vrbl 9 16.09 Fair CLR 22.8 7.2 23.3 16.7 37% 76.05 1014.0
20 14:56 Vrbl 7 16.09 Fair CLR 22.8 8.3 40% 76.1 1014.6
20 13:56 Calm 16.09 Partly Cloudy SCT055 21.1 8.3 44% 76.12 1015.1
20 12:56 W 6 16.09 Fair CLR 21.1 8.3 44% 76.15 1015.5
20 11:56 Vrbl 6 16.09 Fair CLR 20 9.4 51% 76.17 1015.9
20 10:56 Vrbl 9 16.09 Fair CLR 18.3 9.4 56% 76.23 1016.3
20 09:56 Vrbl 7 16.09 Fair CLR 17.2 9.4 17.2 11.1 60% 76.23 1016.5
20 08:56 Vrbl 6 16.09 Fair CLR 15.6 9.4 67% 76.25 1016.6
20 07:56 Calm 16.09 Fair CLR 14.4 9.4 72% 76.25 1016.8
20 06:56 Vrbl 7 16.09 Fair CLR 13.3 9.4 77% 76.28 1017.0
20 05:56 W 6 16.09 Fair CLR 11.7 8.9 83% 76.25 1016.8
20 04:56 W 7 16.09 Fair CLR 11.1 8.9 86% 76.25 1016.8
20 03:56 W 7 16.09 Fair CLR 11.7 8.9 18.9 11.7 83% 76.25 1016.7
20 02:56 SW 7 16.09 Fair CLR 12.8 8.9 77% 76.23 1016.4
20 01:56 SW 7 16.09 Fair CLR 13.9 9.4 74% 76.23 1016.3
20 00:56 SW 6 16.09 Fair CLR 15.6 9.4 67% 76.23 1016.2
19 23:56 Calm 16.09 Fair CLR 16.7 8.9 60% 76.2 1016.1
19 22:56 Calm 16.09 Fair CLR 17.8 8.3 54% 76.2 1015.9
19 21:56 W 6 16.09 Fair CLR 18.9 8.3 21.1 18.3 50% 76.17 1015.6
19 20:56 SW 7 16.09 Fair CLR 19.4 8.3 49% 76.15 1015.6
19 19:56 SW 9 16.09 Partly Cloudy SCT060 18.9 8.3 50% 76.15 1015.5
19 18:56 Vrbl 6 16.09 Mostly Cloudy SCT055 BKN065 20 7.8 45% 76.12 1015.2
19 17:56 W 7 16.09 Fair CLR 20 5.6 39% 76.15 1015.4
19 16:56 Vrbl 9 16.09 Mostly Cloudy BKN065 20.6 5.6 38% 76.15 1015.5
19 15:56 SW 11 16.09 Fair CLR 20.6 7.2 20.6 16.1 42% 76.17 1015.7
19 14:56 Vrbl 9 16.09 Overcast BKN070 OVC085 20 7.8 45% 76.15 1015.6
19 13:56 SW 11 16.09 A Few Clouds FEW050 20 7.8 45% 76.17 1015.7
19 12:56 Vrbl 9 16.09 A Few Clouds FEW080 18.9 6.7 45% 76.15 1015.5
19 11:56 Calm 16.09 Fair CLR 18.9 6.7 45% 76.15 1015.3
19 10:56 W 7 16.09 Mostly Cloudy BKN110 18.3 7.2 49% 76.12 1015.2
19 09:56 Calm 16.09 Fair CLR 16.1 9.4 16.1 11.1 65% 76.12 1015.0
19 08:56 W 9 16.09 Mostly Cloudy FEW090 BKN120 13.9 11.1 83% 76.07 1014.6
19 07:56 SW 9 16.09 Mostly Cloudy BKN090 12.2 11.1 93% 76.05 1014.0
19 06:56 Calm 16.09 Overcast FEW065 OVC120 11.7 10.6 93% 76.02 1013.8
19 05:56 NW 6 16.09 Overcast BKN090 OVC110 11.1 10 93% 75.97 1013.1
19 04:56 Calm 16.09 Overcast OVC100 11.7 10 89% 75.95 1012.6
19 03:56 SE 6 16.09 Mostly Cloudy BKN100 11.7 10 16.7 10.6 89% 75.92 1012.3
19 02:56 SE 6 16.09 A Few Clouds FEW100 11.7 10 89% 75.9 1011.9
19 01:56 Calm 16.09 Fair CLR 12.8 10 83% 75.84 1011.4
19 00:56 S 6 16.09 Fair CLR 13.9 10.6 81% 75.84 1011.4
18 23:56 S 6 16.09 Fair CLR 13.9 11.7 87% 75.77 1010.3
18 22:56 NE 9 16.09 Overcast BKN048 OVC070 14.4 10.6 78% 75.72 1009.8
18 21:56 NE 11 16.09 Fair CLR 16.7 10.6 21.1 16.7 67% 75.74 1009.9 0.03
18 20:56 NE 11 16.09 A Few Clouds FEW085 16.7 11.7 73% 75.69 1009.1
18 19:56 NE 22 G 31 16.09 A Few Clouds FEW095 18.9 11.1 61% 75.69 1009.3
18 18:56 N 11 16.09 Partly Cloudy SCT110 19.4 10 55% 75.67 1009.1 0.03 0.03
18 17:56 SE 7 16.09 A Few Clouds FEW100 21.1 11.7 55% 75.67 1008.9
18 16:56 SE 11 G 31 16.09 Fair CLR 17.8 10.6 63% 75.69 1009.2
18 15:56 NE 15 16.09 Overcast SCT090 OVC110 20 13.9 20 12.8 68% 75.69 1009.2 0.33
18 14:56 NE 11 16.09 Fair CLR 17.8 13.9 78% 75.69 1009.5
18 13:56 NE 13 16.09 Overcast SCT060 BKN075 OVC100 16.1 13.9 87% 75.72 1009.7 0.03
18 12:56 N 6 16.09 Overcast BKN055 OVC070 14.4 13.9 97% 75.77 1010.4 0.08 0.3
18 11:56 Calm 4.83 Light Rain Fog/Mist OVC080 14.4 13.3 93% 75.74 1010.0 0.05
18 10:56 Calm 9.66 Light Rain Fog/Mist FEW050 OVC070 13.9 12.8 93% 75.74 1009.8 0.18
18 09:56 SE 11 6.44 Rain Fog/Mist OVC070 12.8 12.2 13.9 11.7 96% 75.72 1009.8 0.08 0.08
18 08:56 SE 6 16.09 Overcast BKN070 OVC080 13.3 10 81% 75.74 1009.9
Date Time (akdt) Wind (kph) Vis. (km) Weather Sky Cond. Air Dwpt Max. Min. Relative Humidity Wind Chill (°C) Heat Index (°C) altimeter (cm) sea level (mb) 1 hr 3 hr 6 hr
6 hour
Temperature (ºC) Pressure Precipitation (cm)